Regional Weather Roundup
Issued by NWS

Home | Current Version | Previous Version | Text Only | Print | Product List | Glossary On
Versions: 1 2 3 4 5 6 7 8 9 10 11 12 13 14 15 16 17 18 19 20 21 22 23 24 25 26 27 28 29 30 31 32 33 34 35 36 37 38 39 40 41 42 43 44 45 46 47 48 49 50
000
ASUS44 KFWD 110815
RWRTX
NORTH TEXAS HOURLY WEATHER ROUNDUP
NATIONAL WEATHER SERVICE FORT WORTH TX
200 AM CST THU FEB 11 2016

NOTE: "FAIR" INDICATES FEW OR NO CLOUDS BELOW 12,000 FEET WITH NO
SIGNIFICANT WEATHER AND/OR OBSTRUCTIONS TO VISIBILITY.

TXZ118-119-110900-
DALLAS/FORT WORTH METROPLEX

CITY           SKY/WX    TMP DP  RH WIND       PRES   REMARKS
DFW AIRPORT    PTCLDY    56  32  40 SW13      30.01S
DALLAS LOVE    CLEAR     55  35  47 SW8       30.03S
FTW MEACHAM    CLEAR     56  30  37 SW8       30.02S
DAL-EXECUTIVE  PTCLDY    61  30  31 SW10G22   30.02S
FTW-ALLIANCE   CLEAR     53  30  41 SW9       30.01S
FTW-NAS-JRB    CLEAR     60  27  28 SW8       30.03S
FTW-SPINKS     CLEAR     52  33  47 SW8       30.06S
ARLINGTON      CLEAR     53  34  48 S6        30.04S
GRAND PRAIRIE  CLEAR     51  34  52 S7        30.05S
ADDISON        PTCLDY    57  37  46 SW5       30.04S
MESQUITE       CLEAR     49  35  58 S10       30.04S
LANCASTER      CLEAR     49  33  52 CALM      30.05S
$$

TXZ091>094-102>105-117-120-121-131>134-110900-
NORTH CENTRAL TEXAS

CITY           SKY/WX    TMP DP  RH WIND       PRES   REMARKS
SHRMAN/DENISON CLEAR     54  34  48 SW12      30.00R
GAINESVILLE    CLEAR     50  30  45 SW3       30.00S
BOWIE          CLEAR     56  26  31 SW6       30.00S
BRIDGEPORT     CLEAR     56  32  39 SW12      30.03S
DECATUR        CLEAR     58  26  29 SW8       30.02R
DENTON         CLEAR     51  31  46 SW6       30.01R
MCKINNEY       CLEAR     48  35  60 S7        30.01S
GREENVILLE     CLEAR     54  34  47 S14       30.02S
ROCKWALL       CLEAR     53  36  52 SW15G23   30.02S
TERRELL        CLEAR     49  36  61 S7        30.05S
WAXAHACHIE     PTCLDY    56  35  44 SW7       30.06S
CLEBURNE       CLEAR     52  32  46 CALM      30.07S
GRANBURY       CLEAR     60  30  31 SW12      30.05F
$$

TXZ083>090-098>101-113>116-127>130-139>142-154-155-110900-
WESTERN NORTH TEXAS

CITY           SKY/WX    TMP DP  RH WIND       PRES   REMARKS
WICHITA FALLS  CLEAR     56  26  31 NW13      30.00R
WF-KICKAPOO    CLEAR     58  27  30 SW6       30.00S
VERNON         CLEAR     49  21  33 NE3       30.03R
ABILENE        CLEAR     58  25  28 SW16      30.08S
ABILENE-DYESS  CLEAR     60  25  26 S16       30.07S
BRECKENRIDGE   PTCLDY    59  25  27 SW10G16   30.06S
GRAHAM         CLEAR     54  28  37 S8        30.03R
MINERAL WELLS  CLEAR     58  26  29 W9        30.03S
STEPHENVILLE   PTCLDY    56  27  33 SW5       30.10F
COMANCHE       CLEAR     59  30  33 SW16G24   30.09S
BROWNWOOD      PTCLDY    54  27  35 CALM      30.12F
COLEMAN        CLEAR     56  26  31 SW10      30.11S
$$

TXZ143>147-156>162-174-175-110900-
CENTRAL TEXAS

CITY           SKY/WX    TMP DP  RH WIND       PRES   REMARKS
WACO           CLEAR     50  33  52 S9        30.09S
WACO-MCGREGOR  CLEAR     50  34  54 SW6       30.09
HILLSBORO      CLEAR     49  32  52 S6        30.08S
CORSICANA      PTCLDY    56  35  45 SW14      30.09S
MEXIA          PTCLDY    53  38  58 S18       30.09F
HEARNE         CLEAR     51  38  62 S3        30.15F
CAMERON        CLEAR     55  37  50 SW14      30.13S
TEMPLE         CLEAR     47  33  58 S12       30.11F
KILLEEN        CLEAR     58  29  32 SW8       30.10F
KILLEEN-SKYLRK CLEAR     53  31  42 S7        30.11F
FORT HOOD      CLEAR     55  30  37 SW7       30.09F
GATESVILLE     CLEAR     57  32  38 CALM      30.12S
HAMILTON       CLEAR     58  30  34 SW16      30.09F
LAMPASAS       CLEAR     53  32  45 W6        30.11S
$$

TXZ095>097-106>112-122>126-135>138-148>153-164>167-110900-
EAST TEXAS

CITY           SKY/WX    TMP DP  RH WIND       PRES   REMARKS
PARIS          CLEAR     48  32  53 SW9       29.99S
SULPHUR SPRNGS CLEAR     58  35  40 SW17G23   30.03S
MOUNT PLEASANT CLEAR     55  34  45 S8        30.04S
GILMER           N/A    N/A N/A N/A MISG        N/A
MINEOLA        CLEAR     63  34  34 S10G17    30.05R
TYLER          CLEAR     58  37  45 SW12      30.06S
LONGVIEW       CLEAR     51  38  60 SW9       30.06S
MARSHALL       CLEAR     51  37  59 S7        30.08F
ATHENS         PTCLDY    50  36  57 S5        30.07F
PALESTINE      PTCLDY    52  43  71 S6        30.12S
JACKSONVILLE   CLEAR     54  42  64 SW12G22   30.10F
HENDERSON      CLEAR     50  38  65 S3        30.09F
CENTER         FAIR      53  42  67 S8G16     30.10S
NACOGDOCHES    PTCLDY    48  39  71 SW7       30.12S
LUFKIN         CLEAR     50  43  77 SW7       30.13F
$$

SUPPLEMENTAL OBSERVATIONS (CENTRAL)

CITY           SKY/WX    TMP DP  RH WIND       PRES   REMARKS
CADDO GRASSLND   N/A     55  37  50 SW8         N/A
PAT MAYSE LAKE   N/A     55  36  47 S16         N/A
LAKE LIMESTONE   N/A     52  41  66 S7          N/A
MCGREGOR         N/A     46  32  57 SW7         N/A
TEMPLE           N/A     48  30  49 SW3         N/A
$$

SUPPLEMENTAL OBSERVATIONS (WEST)

CITY           SKY/WX    TMP DP  RH WIND       PRES   REMARKS
POSSUM KINGDOM   N/A     63  25  23 SW15        N/A
LBJ GRASSLAND    N/A     55  28  35 S5          N/A
GRANBURY         N/A     61  28  29 SW12        N/A
COMANCHE         N/A     57  25  28 SW17G26     N/A
HAMBY            N/A     57  25  28 SW13        N/A
IVIE RESERVOIR   N/A     54  27  35 NW7         N/A
COLORADO BEND    N/A     57  27  30 W10         N/A
$$

SUPPLEMENTAL OBSERVATIONS (EAST)

CITY           SKY/WX    TMP DP  RH WIND       PRES   REMARKS
CLARKSVILLE      N/A     52  34  50 SW5         N/A
TEXARKANA        N/A     54  34  47 S2          N/A
LINDEN           N/A     57  34  41 SW6         N/A
CADDO LAKE       N/A     54  36  50 SW5         N/A
GILMER           N/A     57  34  41 SW9         N/A
HENDERSON        N/A     50  37  62 S8          N/A
LUFKIN           N/A     50  43  76 MISG        N/A
S SABINE NF      N/A     48  43  81 S5          N/A
$$

SUPPLEMENTAL OBSERVATIONS ARE A COLLECTION OF AUTOMATED INSTRUMENTS
THAT ARE MAINTAINED BY A VARIETY OF FEDERAL AND STATE AGENCIES.
CERTAIN ELEMENTS...SUCH AS HUMIDITY VALUES AND SUSTAINED WIND
SPEEDS...MAY BE APPROXIMATED.




USA.gov is the U.S. government's official web portal to all federal, state and local government web resources and services.